Angoon, AK

5:51 AM AKDT on October 18, 2019 (GMT -0800)
Angoon

Weather History for PAGN - May, 2019

Change the Weather History Date:

Friday, May 10, 2019

  Actual Average (PASI) Record (PASI)
Temperature  
Mean Temperature 48 °F 47 °F  
Max Temperature 55 °F 52 °F 69 °F (1975)
Min Temperature 42 °F 41 °F 34 °F (1977)
Degree Days  
Heating Degree Days 16 18  
Month to date heating degree days 192  
Moisture  
Dew Point 45 °F    
Average Humidity 93    
Maximum Humidity 100    
Minimum Humidity 67    
Precipitation  
Precipitation 0.00 in 0.15 in 1.71 in (1991)
Month to date precipitation 1.36  
Year to date precipitation 26.73  
Sea Level Pressure  
Sea Level Pressure 30.00 in    
Wind  
Wind Speed 1 mph (WNW)    
Max Wind Speed 7 mph    
Max Gust Speed -    
Visibility 5 miles    
Events Fog    
T = Trace of Precipitation, MM = Missing Value Source: NWS Daily Summary

Daily Weather History Graph

Daily Weather History Graph

Search for Another Location

Airport or City:

Astronomy

May. 10, 2019 Rise Set
Actual Time 4:47 AM AKDT 9:03 PM AKDT
Civil Twilight 3:56 AM AKDT 9:55 PM AKDT
Nautical Twilight 2:36 AM AKDT 11:17 PM AKDT
Astronomical Twilight Sun does not rise Sun does not rise
Moon 9:42 AM AKDT (5/10) 2:17 AM AKDT (5/10)
Length of Visible Light 17h 59m
Length of Day
16h 15m
Waxing Crescent, 36% of the Moon is Illuminated
May 10
Waxing Crescent
May 11
First Quarter
May 18
Full
May 26
Last Quarter
Jun 3
New

Hourly Weather History & Observations

Time (AKDT) Temp. Windchill Dew Point Humidity Pressure Visibility Wind Dir Wind Speed Gust Speed Precip Events Conditions
12:56 AM 44.1 °F - 43.0 °F 96% 30.05 in 10.0 mi Calm Calm - N/A   Clear
1:56 AM 44.1 °F - 43.0 °F 96% 30.04 in 10.0 mi Calm Calm - N/A   Clear
2:56 AM 43.0 °F - 42.1 °F 97% 30.01 in 10.0 mi Calm Calm - N/A   Scattered Clouds
3:07 AM 42.8 °F - 42.8 °F 100% 30.05 in 10.0 mi Calm Calm - N/A   Mostly Cloudy
3:22 AM 42.8 °F - 42.8 °F 100% 30.05 in 1.5 mi Calm Calm - N/A   Overcast
3:24 AM 42.8 °F - 42.8 °F 100% 30.05 in 0.8 mi Calm Calm - N/A   Overcast
3:32 AM 42.8 °F - 42.8 °F 100% 30.05 in 0.5 mi Calm Calm - N/A Fog Fog
3:41 AM 42.8 °F 41.1 °F 42.8 °F 100% 30.05 in 1.0 mi SSE 3.5 mph - N/A   Overcast
3:56 AM 43.0 °F - 43.0 °F 100% 30.01 in 2.5 mi Calm Calm - N/A   Overcast
4:03 AM 42.8 °F - 42.8 °F 100% 30.04 in 6.0 mi Calm Calm - N/A   Overcast
4:23 AM 42.8 °F - 42.8 °F 100% 30.04 in 1.8 mi Calm Calm - N/A   Overcast
4:27 AM 42.8 °F - 42.8 °F 100% 30.04 in 0.8 mi Calm Calm - N/A   Overcast
4:33 AM 44.6 °F - 42.8 °F 93% 30.04 in 0.2 mi Calm Calm - N/A Fog Fog
4:56 AM 43.0 °F - 43.0 °F 100% 30.00 in 0.2 mi Calm Calm - N/A Fog Fog
5:34 AM 44.6 °F - 44.6 °F 100% 30.02 in 0.5 mi Calm Calm - N/A Fog Fog
5:48 AM 44.6 °F - 44.6 °F 100% 30.02 in 0.2 mi Calm Calm - N/A Fog Fog
5:56 AM 44.1 °F - 44.1 °F 100% 29.99 in 0.2 mi Calm Calm - N/A Fog Fog
6:06 AM 44.6 °F - 44.6 °F 100% 30.01 in 0.8 mi Calm Calm - N/A   Overcast
6:13 AM 44.6 °F - 44.6 °F 100% 30.01 in 0.5 mi Calm Calm - N/A Fog Fog
6:22 AM 44.6 °F - 44.6 °F 100% 30.01 in 0.8 mi Calm Calm - N/A   Overcast
6:27 AM 44.6 °F - 44.6 °F 100% 30.01 in 0.2 mi Calm Calm - N/A Fog Fog
6:56 AM 46.0 °F - 46.0 °F 100% 29.98 in 0.5 mi Calm Calm - N/A Fog Fog
7:19 AM 46.4 °F - 46.4 °F 100% 30.01 in 0.2 mi Calm Calm - N/A Fog Fog
7:30 AM 46.4 °F - 46.4 °F 100% 30.00 in 0.8 mi Calm Calm - N/A   Overcast
7:32 AM 46.4 °F - 46.4 °F 100% 30.00 in 2.0 mi Calm Calm - N/A   Overcast
7:39 AM 46.4 °F - 46.4 °F 100% 30.00 in 7.0 mi Calm Calm - N/A   Overcast
7:56 AM 46.9 °F - 46.9 °F 100% 29.97 in 9.0 mi Calm Calm - N/A   Overcast
8:08 AM 48.2 °F - 46.4 °F 93% 30.00 in 5.0 mi NNW 3.5 mph - N/A   Overcast
8:15 AM 46.4 °F - 46.4 °F 100% 30.00 in 1.5 mi Calm Calm - N/A   Overcast
8:29 AM 46.4 °F - 46.4 °F 100% 30.00 in 0.8 mi Calm Calm - N/A   Overcast
8:40 AM 46.4 °F - 46.4 °F 100% 30.00 in 0.5 mi Calm Calm - N/A Fog Fog
8:52 AM 46.4 °F 45.2 °F 46.4 °F 100% 30.00 in 0.8 mi Variable 3.5 mph - N/A   Overcast
8:56 AM 46.9 °F - 46.9 °F 100% 29.97 in 0.5 mi Calm Calm - N/A Fog Fog
9:00 AM 46.4 °F - 46.4 °F 100% 30.00 in 1.0 mi Calm Calm - N/A   Overcast
9:03 AM 46.4 °F 45.2 °F 46.4 °F 100% 30.00 in 3.0 mi Variable 3.5 mph - N/A   Overcast
9:56 AM 48.0 °F - 46.9 °F 96% 29.97 in 10.0 mi Calm Calm - N/A   Overcast
10:56 AM 48.9 °F - 48.0 °F 97% 29.97 in 10.0 mi Calm Calm - N/A   Overcast
11:16 AM 51.8 °F - 48.2 °F 88% 29.99 in 10.0 mi Calm Calm - N/A   Overcast
11:56 AM 53.1 °F - 48.9 °F 86% 29.95 in 10.0 mi Calm Calm - N/A   Scattered Clouds
12:56 PM 54.0 °F - 48.0 °F 80% 29.96 in 10.0 mi Variable 3.5 mph - N/A   Overcast
1:56 PM 55.0 °F - 46.9 °F 74% 29.96 in 10.0 mi Variable 6.9 mph - N/A   Partly Cloudy
2:52 PM 53.6 °F - 46.4 °F 77% 30.00 in 10.0 mi WSW 6.9 mph - N/A   Mostly Cloudy
3:25 PM 53.6 °F - 46.4 °F 77% 30.00 in 10.0 mi Variable 3.5 mph - N/A   Overcast
3:56 PM 55.0 °F - 46.0 °F 72% 29.96 in 10.0 mi Variable 3.5 mph - N/A   Overcast
4:56 PM 55.9 °F - 45.0 °F 67% 29.96 in 10.0 mi Variable 3.5 mph - N/A   Mostly Cloudy
5:56 PM 55.0 °F - 44.1 °F 67% 29.96 in 10.0 mi Calm Calm - N/A   Clear
6:56 PM 52.0 °F - 44.1 °F 74% 29.95 in 10.0 mi Calm Calm - N/A   Clear
7:56 PM 51.1 °F - 44.1 °F 77% 29.95 in 10.0 mi Calm Calm - N/A   Overcast
8:56 PM 48.9 °F - 43.0 °F 80% 29.95 in 10.0 mi NNW 4.6 mph - N/A   Overcast
9:56 PM 48.0 °F - 43.0 °F 83% 29.96 in 10.0 mi Calm Calm - N/A   Scattered Clouds
10:56 PM 46.9 °F - 42.1 °F 83% 29.96 in 10.0 mi Calm Calm - N/A   Clear
11:56 PM 46.0 °F - 41.0 °F 83% 29.96 in 10.0 mi Calm Calm - N/A   Partly Cloudy